Omak, WA

5:56 PM PDT on March 29, 2017 (GMT -0700)
Omak

Weather History for KOMK - May, 2014

Change the Weather History Date:

Sunday, May 4, 2014

  Actual Average Record
Temperature  
Mean Temperature 55 °F 54 °F  
Max Temperature 64 °F 69 °F 86 °F (1966)
Min Temperature 46 °F 40 °F 24 °F (2010)
Degree Days  
Heating Degree Days 10 11  
Month to date heating degree days 20 45  
Since 1 July heating degree days 6223 6084  
Cooling Degree Days 0 0  
Month to date cooling degree days 0 0  
Year to date cooling degree days 0 1  
Growing Degree Days 4 (Base 50)    
Moisture  
Dew Point 40 °F    
Average Humidity 65    
Maximum Humidity 93    
Minimum Humidity 36    
Precipitation  
Precipitation 0.05 in 0.05 in 0.52 in (2003)
Month to date precipitation 0.05 0.19  
Year to date precipitation 4.21 5.72  
Sea Level Pressure  
Sea Level Pressure 29.73 in    
Wind  
Wind Speed 8 mph (SSW)    
Max Wind Speed 24 mph    
Max Gust Speed 30 mph    
Visibility 10 miles    
Events Rain    
T = Trace of Precipitation, MM = Missing Value Source: NWS Daily Summary

Daily Weather History Graph

Daily Weather History Graph

Search for Another Location

Airport or City:

Trip Planner

Search our weather history database for the weather conditions in past years. The results will help you decide how hot, cold, wet, or windy it might be!

Date:

Astronomy

May. 04, 2014 Rise Set
Actual Time 5:33 AM PDT 8:16 PM PDT
Civil Twilight 4:57 AM PDT 8:52 PM PDT
Nautical Twilight 4:12 AM PDT 9:38 PM PDT
Astronomical Twilight 3:19 AM PDT 10:32 PM PDT
Moon 10:00 AM PDT (5/4) 12:27 AM PDT (5/4)
Length of Visible Light 15h 54m
Length of Day
14h 43m
Waxing Crescent, 28% of the Moon is Illuminated
May 4
Waxing Crescent
May 6
First Quarter
May 14
Full
May 21
Last Quarter
May 28
New

Hourly Weather History & Observations

Time (PDT) Temp. Dew Point Humidity Pressure Visibility Wind Dir Wind Speed Gust Speed Precip Events Conditions
12:53 AM 54.0 °F 37.0 °F 53% 29.68 in 10.0 mi North 11.5 mph - 0.00 in   Overcast
1:53 AM 52.0 °F 37.0 °F 57% 29.68 in 10.0 mi NNW 9.2 mph - N/A   Overcast
2:53 AM 52.0 °F 39.0 °F 61% 29.68 in 10.0 mi Calm Calm - 0.00 in Rain Light Rain
3:53 AM 50.0 °F 43.0 °F 77% 29.69 in 9.0 mi Calm Calm - 0.03 in Rain Rain
4:53 AM 48.0 °F 45.0 °F 89% 29.70 in 10.0 mi Calm Calm - 0.02 in   Overcast
5:53 AM 48.0 °F 44.1 °F 86% 29.70 in 10.0 mi Calm Calm - N/A   Mostly Cloudy
6:53 AM 46.9 °F 45.0 °F 93% 29.71 in 10.0 mi Variable 4.6 mph - N/A   Partly Cloudy
7:53 AM 54.0 °F 45.0 °F 72% 29.71 in 10.0 mi SSE 9.2 mph - N/A   Clear
8:53 AM 55.9 °F 41.0 °F 57% 29.72 in 10.0 mi SSE 10.4 mph - N/A   Clear
9:53 AM 57.0 °F 41.0 °F 55% 29.73 in 10.0 mi SSW 9.2 mph - N/A   Mostly Cloudy
10:53 AM 57.9 °F 39.0 °F 49% 29.74 in 10.0 mi SSW 9.2 mph - N/A   Overcast
11:53 AM 59.0 °F 37.0 °F 44% 29.73 in 10.0 mi SSW 9.2 mph - N/A   Scattered Clouds
12:53 PM 62.1 °F 36.0 °F 38% 29.73 in 10.0 mi South 12.7 mph - N/A   Overcast
1:53 PM 62.1 °F 36.0 °F 38% 29.72 in 10.0 mi South 11.5 mph 19.6 mph N/A   Overcast
2:53 PM 63.0 °F 35.1 °F 35% 29.72 in 10.0 mi South 15.0 mph 21.9 mph N/A   Mostly Cloudy
3:53 PM 57.9 °F 39.9 °F 51% 29.74 in 10.0 mi South 20.7 mph 28.8 mph 0.00 in   Scattered Clouds
4:53 PM 57.0 °F 39.0 °F 51% 29.75 in 10.0 mi South 11.5 mph - N/A   Clear
5:53 PM 57.0 °F 39.0 °F 51% 29.75 in 10.0 mi SSW 6.9 mph - N/A   Overcast
6:53 PM 57.0 °F 39.9 °F 53% 29.75 in 10.0 mi SSW 3.5 mph - N/A   Scattered Clouds
7:53 PM 54.0 °F 41.0 °F 62% 29.75 in 10.0 mi South 3.5 mph - N/A   Partly Cloudy
8:53 PM 48.0 °F 41.0 °F 77% 29.77 in 10.0 mi NNW 3.5 mph - N/A   Clear
9:53 PM 46.9 °F 41.0 °F 80% 29.78 in 10.0 mi North 4.6 mph - N/A   Mostly Cloudy
11:53 PM 48.0 °F 42.1 °F 80% 29.80 in 10.0 mi NNW 8.1 mph - N/A   Clear